Location: La Brionne
(46.1728°N, 1.7849°E)
Time: 08:33:29
(UTC+00:00)

USA 81 - Pass Details

Date: 16 June 2021
Orbit: 784 x 789 km, 85.0° (Epoch: 12 June)

Event Time Altitude Azimuth Distance (km) Brightness Sun altitude
Rises 20:19:29 0° 359° (N) 3,288 8.0 -5.2°
Reaches altitude 10° 20:21:57 10° 5° (N) 2,354 7.1 -5.6°
Maximum altitude 20:27:03 48° 80° (E) 1,017 4.4 -6.2°
Drops below altitude 10° 20:32:07 10° 154° (SSE) 2,337 5.9 -6.8°
Enters shadow 20:33:00 - 157° (SSE) 2,670 6.2 -6.9°
